National Weather Service United States Department of Commerce

Location Sky/Weather Temp.
(°F)
Dewpt.
(°F)
Humidity
(%)
Wind
(mph)
Pressure
(in)
Remarks
Washington National Partly Sunny 51 34 52 NW20G33 29.71R
Dulles Intl. Partly Sunny 48 33 56 W29G40 29.70R
BWI Airport Mostly Sunny 50 33 52 W26G38 29.65R
Charlottesville, VA Mostly Sunny 53 27 36 VRB6G17 29.74R
Fredericksburg, VA Sunny 54 33 44 NW18G25 29.71R
Staunton, VA Partly Sunny 46 28 50 NW13 29.79R
Winchester, VA Cloudy 45 30 57 W16G32 29.72R
Hagerstown Airport, MD Cloudy 46 33 60 W23G30 29.67R
Baltimore/Martin, MD Mostly Sunny 52 36 54 W29G36 29.64R
Martinsburg, WV Cloudy 45 32 60 W15G22 29.71R
Petersburg, WV Cloudy 42 28 59 W16 29.79R
Patuxent River, MD Mostly Sunny 53 33 46 NW26G37 29.67R
Cumberland, MD Partly Sunny 43 28 56 W13G33 29.80R
Hourly observations from: 1000 AM EST SUN NOV 19 2017
NZUS51 KLWX 191510
HRRLWX

HOURLY OBSERVATIONS AROUND THE LWX CWA
1000 AM EST SUN NOV 19 2017

Note: "FAIR" indicates few or no clouds below 12,000 feet
with no significant weather and/or obstructions to visibility.

 * =Non NWS site. Station does not report significant weather 
    and/or obstructions to visibility.

...DOWNTOWN AREAS...
  
CITY           SKY/WX    TMP DP  RH WIND       PRES   REMARKS
WASHINGTON NAT PTSUNNY   51  34  52 NW20G33   29.71R                  


...WASHINGTON SUBURBS...
  
CITY           SKY/WX    TMP DP  RH WIND       PRES   REMARKS
DULLES         PTSUNNY   48  33  56 W29G40    29.70R                  
MANASSAS*      PTSUNNY   50  32  50 NW14G21   29.73R                  
LEESBURG*      CLOUDY    46  36  66 NW29G40   29.71R                  
GAITHERSBURG*  CLOUDY    47  33  58 NW18G28   29.68R                  
FT BELVOIR     MOSUNNY   52  31  45 W29G36    29.69R                  
ANDREWS AFB    MOSUNNY   49  32  50 W26G35    29.68R                  
COLLEGE PARK*  MOSUNNY   49  31  49 W17G30    29.68                   

...CENTRAL VIRGINIA...
  
CITY           SKY/WX    TMP DP  RH WIND       PRES   REMARKS
CULPEPER*      SUNNY     53  27  37 NW10G18   29.74R                  
CHARLOTTESVILL MOSUNNY   53  27  36 VRB6G17   29.74R                  
ORANGE*        SUNNY     50  28  43 W20       29.73R                  
GORDONSVILLE*  SUNNY     51  29  42 W7        29.74R                  
STAFFORD*      MOSUNNY   52  31  44 NW21G28   29.75R                  
FREDERICKSBRG* SUNNY     54  33  44 NW18G25   29.71R                  
LOUISA*          N/A     52  28  39 W21G29      N/A                   
ASHLAND        SUNNY     55  32  41 W13G22    29.73R                  
RICHMOND       MOSUNNY   62  32  32 NW20G25   29.72R                  

...NORTHEAST/CENTRAL MARYLAND...
  
CITY           SKY/WX    TMP DP  RH WIND       PRES   REMARKS
BWI AIRPORT    MOSUNNY   50  33  52 W26G38    29.65R                  
MARTIN AIRPORT MOSUNNY   52  36  54 W29G36    29.64R                  
WESTMINSTER*   CLOUDY    46  34  61 W16G30    29.64R                  
FREDERICK*     PTSUNNY   48  30  49 W16G23    29.72R                  
FORT MEADE*    MOSUNNY   50  32  50 W17G28    29.68R                  

...SOUTHERN MARYLAND...
  
CITY           SKY/WX    TMP DP  RH WIND       PRES   REMARKS
PATUXENT RIVER MOSUNNY   53  33  46 NW26G37   29.67R                  
LEONARDTOWN*   SUNNY     52  32  46 NW15G22   29.69R                  

...MARYLAND EASTERN SHORE...
  
CITY           SKY/WX    TMP DP  RH WIND       PRES   REMARKS
SALISBURY      SUNNY     52  35  52 W20G35    29.63R                  
CAMBRIDGE*     SUNNY     52  34  50 NW20G32   29.66R                  
OCEAN CITY     SUNNY     53  36  52 NW23G40   29.60R                  
EASTON*        MOSUNNY   54  32  43 NW22G33   29.68R                  

...SHENANDOAH VALLEY...
  
CITY           SKY/WX    TMP DP  RH WIND       PRES   REMARKS
MARTINSBURG    CLOUDY    45  32  60 W15G22    29.71R                  
HAGERSTOWN APT CLOUDY    46  33  60 W23G30    29.67R                  
STAUNTON*      PTSUNNY   46  28  50 NW13      29.79R                  
WINCHESTER*    CLOUDY    45  30  57 W16G32    29.72R                  
FRONT ROYAL*   CLOUDY    45  30  57 MISG      29.73R                  
LURAY*         MOSUNNY   46  30  53 W14G23    29.74R                  
NEW MARKET*    MOSUNNY   45  25  44 W7G22     29.75R                  
WAYNESBORO*    MOSUNNY   46  27  47 NW10G17   29.75R                  

...APPALACHIANS...
  
CITY           SKY/WX    TMP DP  RH WIND       PRES   REMARKS
PETERSBURG WV* CLOUDY    42  28  59 W16       29.79R                  
CUMBERLAND*    PTSUNNY   43  28  56 W13G33    29.80R                  
OAKLAND*       CLOUDY    28  27  93 NW9G23    29.68R WCI  20          
HOT SPRINGS*   CLOUDY    34  27  76 W20G36    29.72R WCI  22          
ELKINS         CLOUDY    36 N/A N/A W9G21     29.83R WCI  29          
BEDFORD PA*    CLOUDY    38  31  77 NW9G22    29.71R                  
JOHNSTOWN      CLOUDY    33  29  85 W29G38    29.67R WCI  19          
ALTOONA        CLOUDY    41  33  73 W15       29.68R                  

...SOUTHERN PENNSYLVANIA/DELAWARE...
  
CITY           SKY/WX    TMP DP  RH WIND       PRES   REMARKS
YORK           CLOUDY    48  33  56 W15G35    29.62R                  
WILMINGTON     MOSUNNY   52  34  50 NW29G46   29.58R                  

...MARINE OBSERVATIONS...
  
STATION/POSITION TIME  TEMP    WIND        PRES
                       AIR SEA DIR/SP/G
                 (UTC) (F)     (DEG/KT/KT) (MB)
THOMAS PT LIGHT  1500   50 54  300/ 33/ 36   N/A

  

 

For past hours' observations from around the NWS Sterling Area, please visit:
https://forecast.weather.gov/product.php?site=LWX&issuedby=LWX&product=RWR&format=CI&version=1